Farmingdale, NY

2:41 PM EST on February 23, 2017 (GMT -0500)
Republic

Weather History for KFRG - June, 2014

Change the Weather History Date:

Friday, June 27, 2014

  Actual Average Record
Temperature  
Mean Temperature 71 °F -  
Max Temperature 79 °F 79 °F 91 °F (2001)
Min Temperature 64 °F 63 °F 55 °F (2004)
Cooling Degree Days 6    
Growing Degree Days 21 (Base 50)    
Moisture  
Dew Point 59 °F    
Average Humidity 70    
Maximum Humidity 88    
Minimum Humidity 40    
Precipitation  
Precipitation 0.00 in - - ()
Sea Level Pressure  
Sea Level Pressure 30.11 in    
Wind  
Wind Speed 7 mph (ESE)    
Max Wind Speed 12 mph    
Max Gust Speed 20 mph    
Visibility 10 miles    
Events      
Averages and records for this station are not official NWS values.
T = Trace of Precipitation, MM = Missing Value Source: NWS Daily Summary

Daily Weather History Graph

Daily Weather History Graph

Search for Another Location

Airport or City:

Trip Planner

Search our weather history database for the weather conditions in past years. The results will help you decide how hot, cold, wet, or windy it might be!

Date:

Astronomy

Jun. 27, 2014 Rise Set
Actual Time 5:24 AM EDT 8:28 PM EDT
Civil Twilight 4:50 AM EDT 9:02 PM EDT
Nautical Twilight 4:08 AM EDT 9:44 PM EDT
Astronomical Twilight 3:18 AM EDT 10:34 PM EDT
Moon 5:52 AM EDT (6/27) 8:31 PM EDT (6/27)
Length of Visible Light 16h 11m
Length of Day
15h 04m
New Moon, 0% of the Moon is Illuminated
Jun 27
New Moon
Jul 5
First Quarter
Jul 12
Full
Jul 18
Last Quarter
Jul 26
New

Hourly Weather History & Observations

Time (EDT) Temp. Dew Point Humidity Pressure Visibility Wind Dir Wind Speed Gust Speed Precip Events Conditions
12:27 AM 68.0 °F 62.6 °F 83% 29.99 in 10.0 mi ESE 9.2 mph - N/A   Overcast
12:53 AM 68.0 °F 62.1 °F 81% 30.00 in 10.0 mi ESE 8.1 mph - N/A   Overcast
1:35 AM 66.2 °F 60.8 °F 83% 30.01 in 10.0 mi East 10.4 mph - N/A   Mostly Cloudy
1:53 AM 66.0 °F 61.0 °F 84% 30.01 in 10.0 mi East 10.4 mph - N/A   Mostly Cloudy
2:53 AM 66.0 °F 60.1 °F 81% 30.01 in 10.0 mi ENE 3.5 mph - N/A   Mostly Cloudy
3:53 AM 66.0 °F 60.1 °F 81% 30.03 in 10.0 mi East 4.6 mph - N/A   Overcast
4:53 AM 64.9 °F 59.0 °F 81% 30.04 in 10.0 mi Calm Calm - N/A   Overcast
5:53 AM 64.0 °F 60.1 °F 87% 30.07 in 10.0 mi NE 4.6 mph - N/A   Mostly Cloudy
6:37 AM 64.4 °F 60.8 °F 88% 30.08 in 10.0 mi NE 3.5 mph - N/A   Mostly Cloudy
6:53 AM 64.9 °F 60.1 °F 84% 30.09 in 10.0 mi Variable 4.6 mph - N/A   Overcast
7:18 AM 66.2 °F 60.8 °F 83% 30.09 in 10.0 mi NNE 4.6 mph - N/A   Partly Cloudy
7:53 AM 66.9 °F 61.0 °F 81% 30.10 in 10.0 mi NE 4.6 mph - N/A   Partly Cloudy
8:53 AM 71.1 °F 59.0 °F 66% 30.11 in 10.0 mi NNE 10.4 mph - N/A   Clear
9:53 AM 73.9 °F 55.9 °F 53% 30.12 in 10.0 mi NE 9.2 mph - N/A   Partly Cloudy
10:53 AM 75.9 °F 53.1 °F 45% 30.13 in 10.0 mi NE 6.9 mph - N/A   Clear
11:53 AM 78.1 °F 52.0 °F 40% 30.13 in 10.0 mi NNE 6.9 mph - N/A   Clear
12:53 PM 78.1 °F 53.1 °F 42% 30.13 in 10.0 mi NE 6.9 mph - N/A   Clear
2:53 PM 75.9 °F 59.0 °F 56% 30.13 in 10.0 mi SSW 10.4 mph - N/A   Mostly Cloudy
3:53 PM 75.9 °F 60.1 °F 58% 30.13 in 10.0 mi South 10.4 mph - N/A   Partly Cloudy
4:53 PM 73.9 °F 59.0 °F 59% 30.13 in 10.0 mi South 10.4 mph 19.6 mph N/A   Clear
5:53 PM 73.0 °F 60.1 °F 64% 30.14 in 10.0 mi South 10.4 mph - N/A   Clear
6:30 PM 71.6 °F 59.0 °F 64% 30.15 in 10.0 mi South 9.2 mph - N/A   Partly Cloudy
6:53 PM 71.1 °F 59.0 °F 66% 30.15 in 10.0 mi South 10.4 mph - N/A   Partly Cloudy
7:53 PM 69.1 °F 59.0 °F 70% 30.17 in 10.0 mi South 11.5 mph - N/A   Clear
8:53 PM 68.0 °F 59.0 °F 73% 30.19 in 10.0 mi South 8.1 mph - N/A   Clear
9:53 PM 66.9 °F 57.9 °F 73% 30.21 in 10.0 mi South 4.6 mph - N/A   Clear
10:53 PM 66.9 °F 57.0 °F 70% 30.22 in 10.0 mi SW 3.5 mph - N/A   Mostly Cloudy
11:53 PM 66.9 °F 57.9 °F 73% 30.22 in 10.0 mi WSW 4.6 mph - N/A   Scattered Clouds